[[{"header":{"parameterUnit":"m.s-1","parameterCategory":1,"la1":30.2991,"la2":30.254,"lo1":-89.0895,"lo2":-89.0444,"dy":0.0017,"dx":0.0017,"nx":28,"ny":28,"refTime":"2025-09-14T03:00:00:Z","depth":0,"parameterNumber":2,"parameterNumberName":"U-component_of_WINDS"},"data":[0,0,0,0,0,0,0,0,0,0,0,0,0,0,0,0,0,0,0,0,0,0,0,0,0,0,0,0,0,0,0,0,0,0,0,0,0,0,0,0,0,0,0,0,0,0,0,0,0,0,0,0,0,0,0,0,0,0,0.7274,0.7274,0,0.7355,0.7356,0.7357,0.7391,0.739,0.739,0.739,0.7473,0.7475,0.7478,0,0,0,0,0,0,0,0,0,0,0,0,0,0.7145,0.7147,0.7274,0.7275,0.7276,0.7355,0.7356,0.7357,0.7391,0.739,0.739,0.739,0.7472,0.7475,0.7478,0,0,0,0,0,0,0,0,0,0,0,0,0,0.7211,0.7148,0.7273,0.7302,0.7305,0.7355,0.7356,0.7358,0.7391,0.739,0.739,0.739,0.7471,0.7475,0.7478,0.7505,0,0,0.7489,0.7491,0,0,0,0,0,0,0,0,0.7207,0.7216,0.7297,0.73,0.7304,0.7363,0.7341,0.7407,0.7391,0.7358,0.739,0.739,0.7436,0.7443,0.7459,0.7509,0.7513,0.7489,0.7491,0.7493,0.7494,0,0,0,0,0,0,0,0.7202,0.7212,0.7306,0.7298,0.7302,0.731,0.7319,0.7354,0.7398,0.7361,0.7364,0.7373,0.7438,0.7455,0.7461,0.7514,0.7489,0.7492,0.7495,0.7496,0.759,0.7591,0,0,0,0,0,0,0.7193,0.7208,0.7303,0.7308,0.7254,0.7312,0.7323,0.7344,0.7397,0.7405,0.7373,0.7374,0.7449,0.7457,0.7464,0.7499,0.7493,0.7496,0.7498,0.759,0.7591,0.7591,0,0,0,0,0,0,0.719,0.7202,0.73,0.7259,0.7272,0.7315,0.7339,0.7346,0.7363,0.7407,0.7414,0.7382,0.7449,0.7459,0.7495,0.7502,0.7498,0.7501,0.759,0.759,0.7591,0.7569,0,0,0,0,0,0,0.7187,0.72,0.7212,0.7259,0.7274,0.733,0.7339,0.7347,0.7369,0.7371,0.7417,0.7425,0.745,0.7489,0.7498,0.7507,0.7504,0.7589,0.759,0.7591,0.757,0.7569,0.7569,0,0,0,0,0,0.7182,0.7202,0.7212,0.7223,0.7289,0.733,0.7339,0.7368,0.7369,0.7381,0.7409,0.7423,0.75,0.7493,0.7503,0.7513,0.7589,0.759,0.759,0.757,0.7569,0.7569,0,0,0,0,0,0,0.7154,0.7209,0.722,0.7257,0.7289,0.7336,0.7351,0.7366,0.7398,0.7399,0.7432,0.7443,0.7476,0.7498,0.7489,0.7542,0.7545,0.7548,0.7526,0.7526,0.7526,0.7519,0.7507,0,0,0,0,0,0.7153,0.7182,0.7228,0.7255,0.7271,0.7308,0.7327,0.7346,0.738,0.7394,0.7425,0.7457,0.7488,0.7508,0.754,0.7573,0.7583,0.7585,0.7584,0.7584,0.7586,0.7605,0.7606,0.7594,0.7594,0.7594,0,0,0.7149,0.7183,0.7199,0.7251,0.7278,0.7307,0.7319,0.7349,0.7371,0.7399,0.7434,0.7458,0.7496,0.7531,0.7547,0.755,0.7592,0.7585,0.7584,0.7587,0.7606,0.7607,0.7608,0.7594,0.7594,0.7594,0,0,0.7158,0.7186,0.7212,0.7239,0.7279,0.7304,0.731,0.7355,0.7371,0.7408,0.7429,0.7455,0.7508,0.7534,0.7555,0.7572,0.7587,0.7581,0.7579,0.7597,0.7598,0.7599,0.7605,0.7606,0.7583,0.7583,0.7583,0,0.7148,0.7193,0.7223,0.7252,0.7274,0.73,0.7326,0.7351,0.7399,0.7413,0.7416,0.7483,0.7511,0.7551,0.7555,0.7571,0.7579,0.7576,0.7595,0.7596,0.7598,0.7604,0.7606,0.7582,0.7582,0.7582,0.7583,0,0.7179,0.721,0.7226,0.7272,0.7296,0.7323,0.7357,0.7377,0.7394,0.7418,0.7454,0.7488,0.7526,0.7537,0.7554,0.758,0.7581,0.7589,0.7593,0.7598,0.7604,0.7606,0.7581,0.7581,0.7582,0.7582,0,0,0.7173,0.7235,0.7241,0.7262,0.7308,0.7332,0.736,0.7398,0.7414,0.7446,0.747,0.7515,0.7522,0.7545,0.7565,0.7581,0.7592,0.7587,0.7588,0.7586,0.7622,0.7615,0.7618,0.7601,0.7602,0.7602,0.7619,0,0.7187,0.724,0.7267,0.7307,0.7335,0.736,0.7385,0.7415,0.7438,0.7465,0.749,0.7521,0.7529,0.7543,0.7559,0.7587,0.7599,0.7586,0.7624,0.7625,0.7613,0.7621,0.7614,0.7628,0.7621,0.7622,0.7622,0,0.7212,0.7244,0.7286,0.7329,0.7342,0.7363,0.74,0.7425,0.746,0.7476,0.7501,0.752,0.755,0.7552,0.7594,0.7584,0.7601,0.7616,0.7618,0.7622,0.7624,0.7625,0.7633,0.7635,0.7626,0.7626,0.7625,0,0.7202,0.7256,0.7289,0.7306,0.7356,0.7371,0.7392,0.7427,0.7448,0.7479,0.7493,0.7527,0.7546,0.7572,0.76,0.7599,0.7639,0.7643,0.7652,0.7651,0.766,0.7659,0.767,0.767,0.767,0.767,0.767,0,0.7216,0.7241,0.7285,0.7305,0.7334,0.7365,0.7392,0.7416,0.7446,0.7471,0.7494,0.7516,0.7552,0.7579,0.7601,0.7632,0.764,0.7653,0.7659,0.7651,0.7649,0.7663,0.7662,0.7671,0.7671,0.7671,0.7671,0,0.721,0.7241,0.7278,0.7323,0.7334,0.7353,0.7391,0.7411,0.7435,0.7466,0.7475,0.7512,0.7545,0.7575,0.7619,0.7633,0.7664,0.7672,0.7652,0.7656,0.7663,0.7662,0.7683,0.7687,0.7685,0.7685,0.7685,0,0.7217,0.7237,0.7283,0.7301,0.7323,0.7352,0.7373,0.7404,0.7425,0.7466,0.748,0.7515,0.7544,0.7595,0.7625,0.7659,0.7667,0.7672,0.7672,0.7663,0.7667,0.7665,0.7667,0.7671,0.7671,0.7671,0.7671,0,0.7225,0.7239,0.7269,0.7303,0.7328,0.7357,0.7386,0.74,0.7436,0.7458,0.7492,0.7515,0.7559,0.7592,0.7629,0.7651,0.7667,0.7671,0.7675,0.7667,0.7655,0.7661,0.7651,0.767,0.767,0.767,0.767,0.767,0.7225,0.7244,0.728,0.7312,0.7337,0.7364,0.7385,0.7411,0.744,0.7479,0.7495,0.7529,0.7563,0.7613,0.7635,0.7662,0.7665,0.7671,0.7672,0.7673,0.7672,0.7651,0.7668,0.7669,0.7669,0.7669,0.7669,0,0.7234,0.7258,0.7288,0.7328,0.7353,0.7366,0.7399,0.7419,0.7449,0.7479,0.7507,0.7546,0.7578,0.7611,0.7646,0.766,0.7669,0.7668,0.7668,0.7672,0.7667,0.766,0.7661,0.7661,0.7661,0.7661,0.7661,0.7661,0.7242,0.7274,0.7292,0.7337,0.7361,0.7394,0.7412,0.7437,0.7461,0.7503,0.753,0.7551,0.7583,0.7619,0.765,0.7658,0.767,0.7668,0.7678,0.7672,0.7673,0.7673,0.7667,0.767,0.767,0.7682,0.7682,0.7682]},{"header":{"parameterUnit":"m.s-1","parameterCategory":1,"la1":30.2991,"la2":30.254,"lo1":-89.0895,"lo2":-89.0444,"dy":0.0017,"dx":0.0017,"nx":28,"ny":28,"refTime":"2025-09-14T03:00:00:Z","depth":0,"parameterNumber":3,"parameterNumberName":"V-component_of_WINDS"},"data":[0,0,0,0,0,0,0,0,0,0,0,0,0,0,0,0,0,0,0,0,0,0,0,0,0,0,0,0,0,0,0,0,0,0,0,0,0,0,0,0,0,0,0,0,0,0,0,0,0,0,0,0,0,0,0,0,0,0,1.8286,1.8285,0,1.8215,1.8214,1.8213,1.8158,1.8158,1.8157,1.8157,1.808,1.8079,1.8077,0,0,0,0,0,0,0,0,0,0,0,0,0,1.8369,1.8368,1.8286,1.8285,1.8284,1.8215,1.8214,1.8213,1.8158,1.8158,1.8157,1.8157,1.8081,1.8079,1.8077,0,0,0,0,0,0,0,0,0,0,0,0,0,1.8319,1.8367,1.8286,1.8248,1.8244,1.8215,1.8214,1.8213,1.8158,1.8158,1.8157,1.8156,1.8081,1.8079,1.8077,1.8077,0,0,1.8069,1.8068,0,0,0,0,0,0,0,0,1.8322,1.8316,1.8255,1.8251,1.8246,1.8195,1.8215,1.8167,1.8159,1.8191,1.8157,1.8156,1.8119,1.8113,1.8101,1.8074,1.8071,1.8069,1.8068,1.8067,1.8066,0,0,0,0,0,0,0,1.8325,1.8319,1.8257,1.8254,1.8249,1.8234,1.8226,1.8206,1.816,1.8188,1.8184,1.8177,1.8116,1.8104,1.8099,1.8069,1.8069,1.8067,1.8066,1.8065,1.8036,1.8037,0,0,0,0,0,0,1.8335,1.8322,1.826,1.8255,1.8283,1.8233,1.8224,1.8212,1.816,1.8151,1.8177,1.8174,1.8108,1.8102,1.8096,1.8092,1.8067,1.8065,1.8063,1.8036,1.8037,1.8037,0,0,0,0,0,0,1.8337,1.833,1.8262,1.8287,1.8278,1.8232,1.8219,1.8211,1.8199,1.8152,1.8143,1.8173,1.8107,1.81,1.8082,1.8089,1.8064,1.8061,1.8035,1.8036,1.8037,1.8085,0,0,0,0,0,0,1.834,1.8331,1.8332,1.8288,1.8277,1.8251,1.822,1.821,1.8195,1.8191,1.8146,1.8138,1.8106,1.8086,1.808,1.8085,1.806,1.8034,1.8035,1.8037,1.8083,1.8087,1.8092,0,0,0,0,0,1.8343,1.8348,1.8333,1.8325,1.8277,1.8252,1.8245,1.821,1.8196,1.8196,1.8165,1.8139,1.8089,1.8085,1.8077,1.8082,1.8034,1.8035,1.8036,1.808,1.8086,1.8092,0,0,0,0,0,0,1.8394,1.8342,1.8324,1.8315,1.8289,1.8243,1.8241,1.8218,1.8194,1.819,1.8146,1.8136,1.8123,1.8101,1.8097,1.8079,1.8058,1.8058,1.8094,1.8099,1.8104,1.8109,1.8058,0,0,0,0,0,1.8404,1.8389,1.8344,1.8341,1.8328,1.8288,1.8275,1.825,1.822,1.8208,1.8177,1.8147,1.8125,1.8111,1.8088,1.8079,1.8067,1.8078,1.8083,1.8087,1.8087,1.8079,1.8083,1.8042,1.8042,1.8042,0,0,1.8425,1.8395,1.8388,1.835,1.8327,1.831,1.8278,1.8263,1.825,1.8206,1.8187,1.8163,1.8127,1.8114,1.8106,1.8095,1.8096,1.8089,1.8092,1.809,1.8081,1.8085,1.8088,1.8043,1.8043,1.8043,0,0,1.8454,1.8431,1.8425,1.8402,1.8367,1.8339,1.8338,1.8295,1.8278,1.8259,1.8225,1.8208,1.8171,1.8146,1.8129,1.8148,1.8122,1.8141,1.8164,1.8157,1.816,1.8162,1.8167,1.817,1.8142,1.8142,1.8142,0,1.8484,1.846,1.8424,1.8411,1.8394,1.8354,1.8346,1.8325,1.8284,1.8273,1.8261,1.8212,1.8185,1.8165,1.8169,1.8157,1.8152,1.8146,1.8163,1.8165,1.8167,1.8171,1.8173,1.8144,1.8144,1.8144,1.8144,0,1.8498,1.8481,1.848,1.8442,1.8426,1.8415,1.8376,1.8363,1.834,1.8313,1.8293,1.826,1.8228,1.8221,1.8198,1.8197,1.819,1.8171,1.8149,1.8174,1.8177,1.8178,1.8148,1.8147,1.8146,1.8146,0,0,1.8557,1.8499,1.8499,1.848,1.8438,1.8424,1.8411,1.8381,1.837,1.8343,1.8329,1.8298,1.828,1.826,1.8233,1.8227,1.8242,1.8208,1.8206,1.8214,1.8236,1.825,1.8252,1.8225,1.8225,1.8225,1.8238,0,1.8578,1.8554,1.8521,1.8507,1.849,1.8451,1.8439,1.8411,1.8386,1.8366,1.8337,1.8316,1.8294,1.8281,1.8273,1.8242,1.8245,1.824,1.8209,1.8209,1.8219,1.8254,1.8269,1.8283,1.8239,1.824,1.824,0,1.86,1.8576,1.8561,1.8519,1.851,1.8501,1.847,1.8452,1.8419,1.84,1.8378,1.835,1.8331,1.8313,1.8286,1.8283,1.8268,1.8251,1.825,1.8245,1.8225,1.8248,1.8287,1.8289,1.8242,1.8241,1.8241,0,1.8643,1.8606,1.8592,1.8577,1.8528,1.8522,1.8501,1.8467,1.8451,1.8423,1.8412,1.8383,1.8366,1.8343,1.8306,1.8296,1.8282,1.8261,1.8265,1.8266,1.8263,1.8263,1.8298,1.8256,1.8256,1.8256,1.8256,0,1.867,1.8662,1.861,1.8601,1.859,1.8551,1.854,1.8516,1.8485,1.8469,1.8434,1.8419,1.8372,1.8351,1.8322,1.8303,1.8296,1.828,1.8272,1.8282,1.8284,1.8271,1.8268,1.8256,1.8256,1.8256,1.8256,0,1.8715,1.8681,1.8662,1.8618,1.8606,1.86,1.856,1.8549,1.8521,1.8501,1.8494,1.845,1.8424,1.8385,1.8347,1.8327,1.8312,1.83,1.8324,1.8319,1.8324,1.8323,1.8351,1.8351,1.831,1.8311,1.8311,0,1.8734,1.8727,1.8682,1.8669,1.865,1.863,1.8613,1.8574,1.8558,1.8518,1.8511,1.8482,1.8457,1.8416,1.8379,1.8349,1.8335,1.8347,1.833,1.834,1.8333,1.8334,1.8332,1.835,1.8351,1.8352,1.8352,0,1.8771,1.8754,1.8732,1.8704,1.8685,1.8661,1.8635,1.8626,1.858,1.8564,1.8537,1.8517,1.8478,1.8449,1.8414,1.839,1.8362,1.8358,1.8357,1.8366,1.838,1.8371,1.8333,1.8357,1.8356,1.8356,1.8356,1.8356,1.8802,1.8793,1.876,1.8736,1.8712,1.8689,1.8675,1.8646,1.8624,1.859,1.8567,1.8541,1.8505,1.8456,1.8433,1.841,1.8399,1.8398,1.8398,1.8398,1.8401,1.8385,1.8404,1.8404,1.8404,1.8403,1.8403,0,1.8836,1.8812,1.8791,1.8755,1.8736,1.8714,1.8684,1.8668,1.8646,1.8616,1.8592,1.856,1.8531,1.8493,1.846,1.845,1.8436,1.8442,1.8442,1.8436,1.8413,1.8417,1.8454,1.8454,1.8454,1.8454,1.8454,1.8454,1.8851,1.8834,1.8813,1.8783,1.8759,1.8734,1.8719,1.8695,1.8671,1.8638,1.8614,1.8589,1.8555,1.852,1.8491,1.848,1.8469,1.8479,1.8464,1.8443,1.8438,1.8434,1.8437,1.8478,1.8478,1.8489,1.8489,1.8489]}]]